Wind_Speed
48 47 46 45 44 45 45 44 43 39 38 36 35 35 34 33 31 30 30 30 29 29 30 30 30 31 31 31 32 32 33 33 34 35 36 36 36 38 39 41 42 44 44 45
48 46 46 48 46 45 44 43 42 40 38 35 36 36 35 33 32 30 29 29 29 28 28 29 29 30 30 31 31 32 32 32 33 34 35 36 37 38 40 42 43 44 44 45
47 46 47 49 45 43 42 41 41 40 35 35 36 35 34 33 32 30 29 28 28 27 27 28 29 29 30 30 30 31 31 32 33 34 35 37 38 40 41 42 43 44 45 47
46 46 50 44 41 42 41 39 38 37 36 36 36 35 34 33 32 30 29 28 27 27 27 28 28 29 29 30 30 31 32 33 34 35 36 38 39 41 42 43 44 45 46 48
48 48 46 43 40 39 39 38 36 36 36 36 35 35 33 32 31 30 29 28 27 27 28 28 28 29 29 30 31 31 32 33 34 36 37 39 40 41 42 43 45 46 47 48
47 46 45 40 38 36 37 37 34 34 34 34 34 34 30 30 30 29 28 28 28 27 27 28 28 29 29 30 31 31 32 33 35 36 38 39 40 41 42 44 45 46 47 49
44 44 42 39 37 36 37 32 29 31 32 32 32 30 29 29 29 28 28 28 28 27 27 27 28 28 29 30 30 31 33 34 35 37 38 39 40 41 43 44 46 47 48 50
44 43 41 37 35 34 32 31 30 29 30 30 30 29 29 28 27 27 27 27 27 27 27 28 28 29 29 30 31 33 34 35 36 37 38 40 41 42 43 45 46 47 49 51
41 38 36 34 33 33 33 31 30 29 29 29 29 29 28 28 27 27 27 27 27 27 28 28 29 30 30 31 33 33 34 35 36 37 38 39 40 42 44 45 47 48 50 51
39 38 36 34 32 32 31 30 29 29 29 28 28 28 28 28 27 27 27 27 28 28 29 30 30 30 31 32 33 34 34 35 36 38 39 40 41 43 44 46 47 49 51 53
38 35 35 34 32 31 30 29 29 28 28 28 28 28 28 28 28 27 27 28 28 29 29 30 30 31 32 33 34 34 35 36 38 39 40 41 42 44 45 47 49 51 52 55
37 33 33 33 33 32 31 30 29 29 28 28 28 28 28 28 28 28 28 29 29 30 30 31 32 33 33 33 34 35 37 38 39 40 41 42 43 45 46 48 50 52 54 56
37 35 33 33 34 33 32 31 31 30 29 28 28 29 29 29 29 29 29 30 31 31 32 33 33 34 34 35 36 37 38 39 40 41 42 43 45 46 48 49 51 53 55 58
38 36 34 33 34 33 32 31 31 30 30 29 29 29 29 29 29 30 30 31 32 32 33 33 34 34 35 36 37 38 39 40 41 42 43 44 46 48 49 51 52 55 58 61
37 35 33 33 33 33 32 32 31 30 30 30 30 30 30 30 30 30 31 32 32 33 33 33 34 34 35 36 37 39 40 41 42 43 44 46 47 49 51 53 55 57 60 63
36 35 34 32 32 32 32 31 31 31 31 31 31 30 30 30 31 31 31 31 32 32 32 33 34 34 36 37 38 40 41 42 43 44 46 47 49 51 53 55 57 60 62 64
35 34 32 31 32 32 32 31 31 31 31 31 31 31 32 32 32 32 31 31 32 32 33 33 34 35 37 38 40 41 42 43 44 46 48 49 51 53 55 57 60 62 64 66
34 33 32 31 31 32 32 31 31 31 31 32 32 32 32 32 32 32 32 32 32 33 33 34 36 37 38 40 41 42 43 44 45 47 49 51 53 55 57 60 62 64 66 67
32 31 31 31 31 31 31 31 31 31 31 32 32 33 33 33 33 33 32 33 33 34 35 36 37 38 40 41 42 43 44 45 47 49 51 53 55 57 60 62 64 66 67 67
32 31 31 31 30 30 30 30 30 31 31 31 32 32 33 33 33 33 33 34 34 35 36 37 39 40 41 42 43 44 45 47 49 51 53 54 57 59 62 64 65 66 67 67
30 30 30 30 30 29 29 29 29 30 30 31 31 32 32 33 33 33 34 34 35 36 37 39 40 41 42 43 44 45 47 49 50 52 54 57 59 62 63 64 65 66 66 66
30 30 30 29 29 29 29 29 29 30 30 30 30 31 32 32 32 33 34 35 36 37 38 39 41 42 43 44 45 46 48 50 52 54 57 59 61 63 64 65 65 65 65 64
29 29 29 28 28 29 29 30 30 30 30 31 31 31 32 32 33 34 35 36 37 38 39 40 42 43 44 44 46 48 50 52 54 56 59 61 63 64 64 65 64 64 63 62
30 29 28 28 28 28 29 29 30 30 30 31 31 32 32 33 34 35 36 37 38 39 40 42 43 44 44 46 48 50 52 54 56 59 61 62 63 64 64 63 63 62 62 60
29 29 28 28 28 29 29 29 29 30 30 31 32 33 33 34 35 36 37 38 39 40 41 43 44 45 46 48 50 52 54 56 58 61 62 63 63 63 62 62 61 61 59 55
29 29 29 29 29 29 29 29 30 30 31 31 32 33 34 34 35 36 37 39 40 41 42 43 45 46 48 49 52 54 56 58 61 62 62 62 62 62 61 60 60 58 54 49
29 29 29 29 29 29 29 30 30 31 31 32 33 33 34 35 36 37 38 39 41 42 43 45 46 48 50 52 54 55 58 60 61 61 62 61 61 60 59 58 56 52 48 45
Wind_Direction
230 235 237 237 238 239 241 244 247 249 250 254 260 263 264 266 267 267 268 269 269 269 269 269 270 270 271 272 273 273 274 276 277 278 280 281 283 285 286 288 290 292 293 294
226 229 236 238 236 238 240 242 245 246 248 252 257 260 263 265 267 267 268 269 269 269 269 270 270 271 272 273 274 275 276 277 278 280 281 283 284 286 288 290 291 292 293 294
225 227 233 236 236 238 240 242 244 247 248 251 254 257 261 264 265 266 267 268 268 268 269 269 270 271 272 273 274 276 277 279 280 281 282 283 285 287 289 291 292 293 295 296
225 229 234 235 237 240 241 241 243 247 248 250 253 257 260 262 264 265 266 266 267 268 269 269 270 271 272 273 275 276 278 279 281 282 284 285 287 289 290 291 293 294 296 297
225 230 235 234 234 239 243 241 242 246 247 250 253 255 257 260 262 264 265 266 267 267 268 269 270 272 273 275 276 278 279 281 282 283 285 287 288 290 291 292 294 295 296 297
224 229 232 233 236 238 241 241 240 244 246 249 251 254 256 258 261 264 266 266 267 268 269 269 270 272 274 276 278 280 281 282 284 286 287 289 290 291 292 293 295 296 297 298
225 229 231 232 234 236 239 241 242 245 247 248 251 254 255 257 260 263 265 266 267 268 269 270 272 273 275 277 279 281 283 285 286 288 289 290 291 292 293 294 295 297 298 299
226 229 232 233 235 236 240 241 243 244 245 247 249 252 254 257 260 262 264 265 267 268 269 271 272 274 276 278 280 282 284 286 288 289 290 291 292 293 294 295 297 298 299 300
230 233 235 235 235 236 238 241 243 245 246 246 248 251 254 257 260 262 264 265 266 268 270 272 274 276 277 279 282 284 286 287 289 290 291 292 293 294 296 297 298 299 300 301
228 229 233 235 236 236 238 241 244 245 246 247 249 251 254 256 259 262 263 265 267 269 271 273 275 277 279 281 283 284 286 288 290 292 292 293 294 296 296 298 299 300 301 303
226 227 229 231 234 237 237 240 243 245 247 249 251 252 254 256 259 261 263 265 268 270 273 275 276 278 280 282 284 285 287 290 292 293 293 294 296 297 298 299 301 302 303 304
226 228 229 231 234 236 238 239 241 244 248 250 251 252 254 256 259 261 264 266 269 271 274 276 278 280 282 283 285 287 289 291 292 293 294 296 297 298 300 301 302 303 305 306
224 227 229 230 234 236 238 238 240 243 246 248 250 252 254 257 260 263 266 268 271 273 275 277 279 281 282 284 286 288 290 292 293 294 296 297 298 299 301 302 304 305 306 308
224 228 229 231 234 235 237 239 241 243 245 248 251 254 256 259 262 264 267 269 272 274 276 278 280 281 283 285 287 289 291 293 294 296 297 298 299 301 302 304 305 306 308 309
226 228 230 232 234 235 237 240 242 244 247 250 253 255 258 261 264 266 268 271 273 275 277 279 280 282 284 287 289 291 293 294 295 297 298 299 301 302 304 305 307 308 309 310
225 227 230 233 234 236 237 240 243 245 247 250 253 256 259 263 265 267 270 272 274 275 277 279 281 283 286 288 290 292 293 295 296 298 299 301 303 304 306 307 308 309 310 311
225 228 231 234 236 236 238 241 243 245 248 250 254 257 261 264 266 268 270 272 274 276 278 280 282 285 287 290 291 293 294 296 297 299 301 303 304 306 307 308 309 310 311 311
227 229 231 233 235 237 239 242 244 246 248 251 255 259 263 265 267 268 270 272 275 276 278 281 284 286 289 290 292 294 295 297 299 301 303 304 306 307 308 309 310 311 311 312
228 230 231 233 235 238 241 244 246 249 252 255 258 261 263 265 267 268 270 273 275 277 280 282 285 288 290 292 293 295 297 299 301 302 304 305 307 308 309 310 311 312 312 312
230 231 232 234 237 239 242 244 247 250 253 256 259 261 263 265 267 269 271 273 275 278 281 284 287 289 291 293 294 296 298 300 302 303 305 306 308 309 310 311 312 312 313 313
232 233 234 235 237 239 242 245 248 250 253 256 259 261 263 265 267 270 272 274 277 279 282 285 287 290 292 294 296 297 299 301 303 305 306 307 309 310 311 312 313 313 314 314
232 232 232 233 235 238 241 245 248 251 254 256 259 262 264 266 268 271 273 276 278 281 284 287 289 291 293 295 297 299 301 303 304 306 307 308 309 310 311 312 313 313 314 314
231 231 232 234 236 240 243 247 250 252 255 257 260 262 264 266 269 272 275 277 280 283 286 288 291 292 294 296 298 300 302 304 306 307 308 309 310 311 312 312 313 313 314 314
231 232 234 236 238 242 245 249 251 253 256 258 260 263 266 268 271 274 276 279 282 284 287 290 292 293 295 297 299 301 303 305 306 308 309 310 310 311 312 312 312 313 313 313
232 233 236 239 242 244 247 250 252 254 257 259 262 265 268 270 273 276 278 281 283 286 288 290 292 294 296 299 301 303 305 306 307 308 309 310 311 311 312 312 313 313 313 313
233 236 239 242 244 246 249 250 252 254 257 261 264 267 270 272 275 277 280 283 285 288 290 292 294 296 298 300 302 304 305 307 308 309 309 310 311 312 312 312 313 313 313 312
235 237 240 241 243 246 248 251 254 257 260 263 266 269 272 274 277 279 282 285 287 289 292 294 296 298 300 302 304 305 306 307 308 309 310 311 311 312 312 313 313 313 312 311
Height
5610 5616 5621 5627 5633 5637 5641 5647 5652 5659 5663 5667 5668 5670 5672 5674 5675 5677 5678 5679 5679 5680 5680 5681 5681 5681 5682 5682 5682 5682 5681 5681 5680 5679 5678 5677 5676 5674 5672 5669 5667 5664 5660 5657
5600 5606 5611 5615 5622 5628 5633 5639 5644 5649 5654 5660 5660 5661 5663 5666 5667 5669 5670 5671 5671 5672 5672 5673 5673 5673 5673 5673 5673 5673 5673 5672 5671 5670 5669 5668 5666 5664 5662 5659 5656 5653 5650 5646
5590 5597 5601 5604 5613 5620 5625 5631 5636 5640 5649 5651 5652 5654 5656 5657 5659 5661 5662 5663 5663 5664 5664 5665 5665 5665 5665 5665 5665 5665 5665 5664 5663 5662 5660 5659 5657 5654 5652 5649 5646 5643 5639 5635
5582 5588 5589 5601 5609 5612 5617 5623 5629 5633 5638 5641 5644 5646 5648 5649 5651 5652 5654 5654 5655 5656 5656 5656 5656 5657 5657 5657 5657 5656 5656 5655 5654 5653 5651 5649 5647 5644 5641 5638 5635 5632 5628 5623
5572 5577 5583 5593 5600 5605 5610 5615 5621 5625 5629 5632 5635 5637 5639 5641 5643 5644 5645 5646 5647 5648 5648 5648 5648 5648 5648 5648 5648 5648 5647 5646 5645 5643 5641 5639 5637 5634 5631 5628 5624 5620 5616 5612
5564 5570 5576 5588 5595 5598 5602 5605 5614 5616 5620 5623 5625 5628 5633 5633 5634 5636 5637 5638 5638 5639 5639 5640 5640 5640 5640 5640 5639 5639 5638 5637 5635 5633 5631 5629 5626 5623 5620 5617 5613 5609 5605 5599
5556 5563 5570 5580 5586 5590 5595 5603 5606 5608 5611 5614 5617 5621 5624 5625 5626 5627 5628 5629 5630 5631 5631 5632 5632 5632 5632 5631 5631 5630 5628 5627 5625 5623 5621 5619 5616 5613 5609 5606 5602 5598 5593 5588
5549 5556 5566 5573 5578 5584 5590 5594 5597 5600 5603 5606 5609 5612 5614 5616 5618 5619 5620 5621 5622 5623 5623 5624 5624 5624 5623 5622 5622 5620 5619 5617 5615 5613 5611 5608 5605 5602 5598 5594 5590 5585 5580 5575
5547 5556 5562 5566 5572 5577 5581 5585 5588 5592 5595 5598 5601 5603 5606 5608 5610 5611 5612 5613 5614 5615 5615 5615 5615 5615 5614 5613 5612 5611 5609 5608 5605 5603 5600 5597 5594 5591 5587 5583 5578 5573 5568 5562
5539 5546 5553 5559 5564 5568 5573 5577 5580 5584 5588 5591 5593 5596 5598 5600 5602 5603 5604 5605 5606 5607 5607 5607 5606 5606 5605 5604 5603 5601 5600 5598 5595 5593 5590 5587 5583 5579 5575 5571 5566 5561 5555 5549
5531 5539 5545 5551 5556 5561 5565 5569 5573 5576 5580 5582 5585 5588 5590 5592 5594 5595 5596 5597 5598 5598 5598 5598 5598 5597 5596 5595 5593 5592 5590 5588 5585 5582 5579 5576 5572 5568 5563 5558 5553 5548 5542 5535
5527 5534 5540 5545 5550 5553 5558 5562 5565 5569 5572 5575 5578 5580 5582 5584 5586 5587 5588 5589 5589 5589 5589 5589 5588 5587 5586 5585 5583 5582 5580 5577 5574 5571 5568 5565 5561 5556 5551 5546 5540 5534 5527 5521
5519 5525 5531 5536 5541 5545 5550 5554 5557 5561 5564 5567 5570 5572 5574 5576 5578 5579 5580 5580 5580 5580 5580 5579 5579 5578 5576 5575 5573 5571 5569 5566 5563 5560 5557 5553 5549 5544 5540 5534 5527 5521 5513 5506
5511 5517 5523 5528 5533 5538 5542 5546 5550 5553 5557 5559 5562 5564 5566 5568 5569 5570 5571 5571 5571 5571 5570 5570 5569 5568 5566 5565 5563 5561 5558 5555 5552 5549 5545 5541 5537 5532 5527 5521 5516 5508 5500 5491
5504 5510 5516 5521 5526 5530 5535 5539 5542 5546 5549 5552 5554 5556 5558 5559 5561 5561 5562 5562 5562 5561 5561 5560 5559 5558 5556 5554 5552 5550 5547 5544 5541 5537 5533 5529 5524 5519 5513 5508 5501 5494 5486 5477
5497 5503 5508 5513 5518 5523 5527 5531 5535 5538 5541 5543 5545 5547 5549 5550 5551 5552 5552 5552 5552 5552 5551 5550 5549 5548 5546 5544 5542 5539 5536 5532 5529 5525 5521 5516 5511 5506 5500 5493 5487 5479 5471 5462
5490 5496 5502 5507 5511 5515 5519 5523 5527 5530 5532 5535 5537 5539 5540 5541 5542 5543 5543 5543 5543 5542 5541 5540 5539 5537 5535 5533 5531 5528 5524 5521 5517 5513 5508 5503 5498 5492 5485 5479 5471 5464 5455 5445
5484 5489 5494 5499 5503 5507 5511 5515 5518 5521 5524 5526 5528 5530 5531 5532 5533 5533 5533 5533 5533 5532 5531 5530 5529 5527 5525 5522 5519 5516 5513 5509 5505 5500 5495 5490 5484 5478 5471 5464 5456 5447 5439 5429
5477 5482 5487 5491 5495 5499 5503 5507 5510 5513 5515 5517 5519 5520 5522 5522 5523 5523 5524 5523 5523 5522 5521 5520 5518 5516 5513 5511 5508 5504 5501 5497 5492 5487 5482 5476 5470 5463 5456 5448 5440 5431 5421 5412
5470 5475 5479 5483 5488 5492 5495 5498 5501 5504 5506 5508 5509 5511 5512 5513 5513 5514 5514 5513 5513 5512 5510 5509 5507 5505 5502 5499 5496 5492 5488 5484 5479 5474 5468 5462 5456 5448 5440 5432 5423 5414 5405 5395
5463 5468 5472 5476 5480 5484 5487 5490 5492 5495 5497 5499 5500 5501 5502 5503 5503 5504 5504 5503 5502 5501 5500 5498 5496 5493 5490 5487 5483 5480 5475 5471 5466 5460 5454 5448 5441 5433 5425 5416 5407 5398 5389 5379
5456 5460 5464 5468 5472 5476 5479 5481 5484 5486 5488 5490 5491 5492 5493 5493 5494 5494 5494 5493 5492 5490 5489 5487 5484 5481 5478 5475 5471 5467 5462 5457 5452 5446 5440 5433 5425 5417 5409 5400 5391 5382 5373 5363
5448 5453 5457 5461 5464 5468 5470 5473 5475 5477 5479 5480 5482 5483 5483 5484 5484 5484 5483 5482 5481 5479 5477 5475 5472 5469 5466 5462 5458 5454 5449 5444 5438 5431 5424 5417 5409 5401 5393 5384 5375 5366 5357 5349
5442 5446 5450 5453 5456 5459 5462 5464 5467 5468 5470 5471 5472 5473 5474 5474 5474 5473 5472 5471 5470 5468 5466 5463 5460 5457 5453 5449 5445 5440 5435 5429 5423 5416 5409 5401 5393 5385 5377 5368 5360 5351 5343 5334
5434 5438 5442 5445 5449 5451 5454 5456 5458 5459 5461 5462 5463 5463 5464 5464 5464 5463 5461 5460 5458 5456 5454 5451 5447 5444 5440 5436 5431 5426 5420 5414 5408 5401 5393 5386 5378 5369 5361 5352 5344 5336 5328 5320
5427 5431 5434 5438 5440 5443 5445 5447 5449 5450 5452 5452 5453 5453 5454 5453 5453 5452 5450 5448 5446 5444 5441 5438 5435 5431 5427 5422 5417 5412 5406 5399 5392 5385 5377 5369 5361 5353 5345 5337 5329 5321 5314 5307
5420 5424 5427 5429 5432 5435 5437 5439 5440 5441 5442 5443 5443 5443 5443 5443 5442 5440 5439 5437 5435 5432 5429 5425 5422 5418 5413 5408 5403 5397 5390 5383 5376 5369 5361 5354 5346 5338 5330 5323 5315 5307 5301 5295